[[{"header":{"parameterUnit":"m.s-1","parameterCategory":1,"la1":30.2991,"la2":30.254,"lo1":-89.0895,"lo2":-89.0444,"dy":0.0017,"dx":0.0017,"nx":28,"ny":28,"refTime":"2025-07-22T21:00:00:Z","depth":0,"parameterNumber":2,"parameterNumberName":"U-component_of_WINDS"},"data":[0,0,0,0,0,0,0,0,0,0,0,0,0,0,0,0,0,0,0,0,0,0,0,0,0,0,0,0,0,0,0,0,0,0,0,0,0,0,0,0,0,0,0,0,0,0,0,0,0,0,0,0,0,0,0,0,0,0,-6.8572,-6.857,0,-6.8407,-6.8405,-6.8404,-6.8243,-6.8241,-6.8239,-6.8237,-6.8058,-6.8056,-6.8053,0,0,0,0,0,0,0,0,0,0,0,0,0,-6.8738,-6.8735,-6.8572,-6.857,-6.8568,-6.8408,-6.8405,-6.8403,-6.8243,-6.8241,-6.8238,-6.8236,-6.8059,-6.8056,-6.8053,0,0,0,0,0,0,0,0,0,0,0,0,0,-6.8629,-6.8735,-6.8572,-6.8469,-6.8458,-6.8408,-6.8405,-6.8402,-6.8244,-6.824,-6.8237,-6.8234,-6.806,-6.8056,-6.8052,-6.8088,0,0,-6.8039,-6.8038,0,0,0,0,0,0,0,0,-6.8635,-6.8623,-6.8486,-6.8476,-6.8463,-6.8343,-6.8398,-6.8297,-6.8244,-6.8325,-6.8237,-6.8233,-6.8155,-6.8143,-6.8118,-6.808,-6.8072,-6.8039,-6.8036,-6.8035,-6.8033,0,0,0,0,0,0,0,-6.8643,-6.8629,-6.8506,-6.8484,-6.847,-6.8427,-6.8409,-6.8378,-6.8259,-6.8317,-6.8305,-6.8289,-6.8148,-6.8123,-6.8113,-6.807,-6.8039,-6.8035,-6.8033,-6.8031,-6.8049,-6.8052,0,0,0,0,0,0,-6.8667,-6.8636,-6.8511,-6.8501,-6.8544,-6.8427,-6.8406,-6.8384,-6.8259,-6.8237,-6.8291,-6.8282,-6.8132,-6.8118,-6.8106,-6.8137,-6.8035,-6.8031,-6.8028,-6.8046,-6.8049,-6.8053,0,0,0,0,0,0,-6.8672,-6.8658,-6.8518,-6.8565,-6.8545,-6.8428,-6.8405,-6.8383,-6.8357,-6.8239,-6.8216,-6.8288,-6.8129,-6.8112,-6.8094,-6.8128,-6.8029,-6.8025,-6.8042,-6.8047,-6.8051,-6.8201,0,0,0,0,0,0,-6.8677,-6.866,-6.8675,-6.8567,-6.8543,-6.8512,-6.8407,-6.8382,-6.8352,-6.8337,-6.823,-6.8209,-6.8125,-6.8101,-6.809,-6.8121,-6.8022,-6.8038,-6.8044,-6.805,-6.8192,-6.821,-6.8225,0,0,0,0,0,-6.8684,-6.8722,-6.8677,-6.8662,-6.8559,-6.8515,-6.85,-6.8405,-6.8355,-6.8367,-6.8291,-6.8213,-6.8128,-6.8101,-6.8086,-6.8117,-6.8036,-6.8043,-6.8049,-6.8185,-6.8207,-6.8225,0,0,0,0,0,0,-6.8834,-6.8706,-6.8654,-6.866,-6.86,-6.8488,-6.8499,-6.8431,-6.8381,-6.837,-6.8251,-6.8228,-6.8222,-6.8168,-6.814,-6.8143,-6.8071,-6.8075,-6.8179,-6.8198,-6.8214,-6.8225,-6.8018,0,0,0,0,0,-6.8869,-6.8846,-6.8734,-6.875,-6.8723,-6.8618,-6.8594,-6.8527,-6.8458,-6.8431,-6.8353,-6.8287,-6.8244,-6.8219,-6.8174,-6.8185,-6.8157,-6.8199,-6.8216,-6.823,-6.8233,-6.8231,-6.8247,-6.8075,-6.8075,-6.8075,0,0,-6.8938,-6.8865,-6.8858,-6.8778,-6.8724,-6.8699,-6.8596,-6.8576,-6.8555,-6.8426,-6.8404,-6.8346,-6.8263,-6.826,-6.8254,-6.8214,-6.8275,-6.8238,-6.8251,-6.8246,-6.824,-6.8256,-6.8271,-6.8079,-6.8079,-6.8078,0,0,-6.9051,-6.8997,-6.9002,-6.895,-6.887,-6.8799,-6.8801,-6.87,-6.8656,-6.8634,-6.8536,-6.8508,-6.844,-6.8384,-6.8347,-6.8441,-6.8365,-6.843,-6.8514,-6.8513,-6.8527,-6.8538,-6.8567,-6.858,-6.8435,-6.8435,-6.8435,0,-6.9146,-6.9109,-6.9012,-6.8998,-6.8964,-6.885,-6.8853,-6.8806,-6.8714,-6.8692,-6.865,-6.856,-6.8497,-6.8477,-6.85,-6.8476,-6.847,-6.8439,-6.8534,-6.8544,-6.8553,-6.8579,-6.8591,-6.8443,-6.8442,-6.8441,-6.8441,0,-6.9228,-6.9204,-6.9217,-6.9135,-6.9103,-6.9097,-6.8996,-6.8976,-6.8912,-6.8845,-6.8821,-6.8742,-6.8678,-6.8669,-6.8605,-6.8639,-6.8616,-6.8557,-6.8479,-6.8579,-6.8601,-6.8611,-6.8455,-6.8452,-6.8449,-6.8447,0,0,-6.9427,-6.9293,-6.9299,-6.9259,-6.9163,-6.9141,-6.9129,-6.907,-6.9052,-6.8993,-6.8977,-6.8922,-6.8865,-6.8824,-6.8753,-6.8753,-6.8828,-6.8691,-6.8688,-6.8716,-6.8855,-6.8898,-6.8912,-6.8779,-6.8781,-6.8782,-6.886,0,-6.9521,-6.9495,-6.9408,-6.9407,-6.9381,-6.9274,-6.9262,-6.9201,-6.9139,-6.9105,-6.9034,-6.8996,-6.8927,-6.89,-6.8897,-6.882,-6.8853,-6.8814,-6.8757,-6.8757,-6.8777,-6.8924,-6.8969,-6.9047,-6.8869,-6.8871,-6.8872,0,-6.9625,-6.9576,-6.9574,-6.9477,-6.9463,-6.9455,-6.9392,-6.9364,-6.929,-6.9245,-6.92,-6.9121,-6.9098,-6.9032,-6.8996,-6.8971,-6.8944,-6.8903,-6.8903,-6.889,-6.8817,-6.891,-6.907,-6.908,-6.8885,-6.8884,-6.8883,0,-6.9766,-6.9699,-6.9688,-6.9658,-6.9547,-6.9543,-6.9496,-6.942,-6.9389,-6.9334,-6.9312,-6.9255,-6.9222,-6.9177,-6.9084,-6.9045,-6.9058,-6.8984,-6.9014,-6.9017,-6.9018,-6.9018,-6.917,-6.9009,-6.9009,-6.9009,-6.9008,0,-6.9876,-6.9878,-6.9749,-6.9742,-6.974,-6.9639,-6.9638,-6.9581,-6.9514,-6.9491,-6.9395,-6.9374,-6.9255,-6.922,-6.9147,-6.9127,-6.9113,-6.9072,-6.9052,-6.9078,-6.9083,-6.9055,-6.9045,-6.9012,-6.9011,-6.901,-6.901,0,-7.003,-6.9946,-6.9926,-6.9823,-6.9798,-6.98,-6.971,-6.9697,-6.9631,-6.9602,-6.959,-6.9484,-6.9437,-6.9342,-6.9268,-6.9219,-6.9213,-6.9181,-6.9239,-6.9225,-6.926,-6.9257,-6.9395,-6.9407,-6.9244,-6.9246,-6.9247,0,-7.0104,-7.0103,-7.0002,-6.9981,-6.9938,-6.9906,-6.9875,-6.9777,-6.9747,-6.9664,-6.966,-6.9607,-6.9559,-6.9489,-6.9403,-6.9345,-6.9307,-6.936,-6.9297,-6.9323,-6.9302,-6.9302,-6.9299,-6.9372,-6.9375,-6.9377,-6.9378,0,-7.0243,-7.0201,-7.0162,-7.0108,-7.0075,-7.0027,-6.9973,-6.9961,-6.9848,-6.982,-6.9773,-6.9737,-6.9663,-6.9609,-6.954,-6.9486,-6.9412,-6.94,-6.9403,-6.9427,-6.9459,-6.9437,-6.9272,-6.9395,-6.9394,-6.9392,-6.9391,-6.9391,-7.0355,-7.0348,-7.0276,-7.0235,-7.0185,-7.0137,-7.012,-7.0052,-7.0013,-6.9947,-6.9891,-6.9848,-6.9772,-6.9672,-6.9624,-6.9586,-6.955,-6.9556,-6.9556,-6.9558,-6.9567,-6.947,-6.9573,-6.9573,-6.9572,-6.9571,-6.9571,0,-7.0485,-7.0434,-7.0397,-7.0327,-7.0294,-7.0233,-7.017,-7.0145,-7.011,-7.0048,-7.0003,-6.9948,-6.9896,-6.9807,-6.9747,-6.9734,-6.9698,-6.972,-6.9718,-6.9706,-6.9605,-6.9606,-6.975,-6.975,-6.975,-6.975,-6.975,-6.975,-7.0548,-7.0532,-7.0482,-7.044,-7.0387,-7.0347,-7.0316,-7.027,-7.022,-7.0164,-7.0122,-7.0066,-6.9991,-6.9925,-6.9873,-6.9848,-6.9827,-6.986,-6.9824,-6.973,-6.9713,-6.9697,-6.9697,-6.9858,-6.9858,-6.9927,-6.9927,-6.9928]},{"header":{"parameterUnit":"m.s-1","parameterCategory":1,"la1":30.2991,"la2":30.254,"lo1":-89.0895,"lo2":-89.0444,"dy":0.0017,"dx":0.0017,"nx":28,"ny":28,"refTime":"2025-07-22T21:00:00:Z","depth":0,"parameterNumber":3,"parameterNumberName":"V-component_of_WINDS"},"data":[0,0,0,0,0,0,0,0,0,0,0,0,0,0,0,0,0,0,0,0,0,0,0,0,0,0,0,0,0,0,0,0,0,0,0,0,0,0,0,0,0,0,0,0,0,0,0,0,0,0,0,0,0,0,0,0,0,0,2.4015,2.4015,0,2.3981,2.3981,2.398,2.3975,2.3975,2.3976,2.3976,2.3934,2.3932,2.3931,0,0,0,0,0,0,0,0,0,0,0,0,0,2.407,2.4069,2.4015,2.4015,2.4014,2.3981,2.3981,2.398,2.3975,2.3975,2.3976,2.3976,2.3934,2.3932,2.3931,0,0,0,0,0,0,0,0,0,0,0,0,0,2.4042,2.4069,2.4015,2.4008,2.4007,2.3981,2.3981,2.398,2.3975,2.3975,2.3976,2.3976,2.3935,2.3933,2.3931,2.3907,0,0,2.3924,2.3923,0,0,0,0,0,0,0,0,2.4043,2.404,2.4009,2.4008,2.4007,2.3983,2.3984,2.3955,2.3975,2.3987,2.3976,2.3977,2.3949,2.3946,2.3938,2.3905,2.3904,2.3924,2.3922,2.3922,2.3921,0,0,0,0,0,0,0,2.4045,2.4041,2.4001,2.4009,2.4008,2.4004,2.4001,2.3979,2.3965,2.3986,2.3985,2.3982,2.3949,2.394,2.3937,2.3903,2.3924,2.3922,2.3921,2.392,2.3851,2.385,0,0,0,0,0,0,2.405,2.4043,2.4002,2.4,2.4027,2.4003,2.3999,2.399,2.3966,2.3963,2.3981,2.3982,2.3944,2.394,2.3936,2.3908,2.3922,2.392,2.3918,2.3851,2.385,2.385,0,0,0,0,0,0,2.4051,2.4046,2.4004,2.4022,2.4016,2.4002,2.3991,2.3989,2.3981,2.3963,2.3959,2.3976,2.3944,2.3939,2.3915,2.3906,2.3919,2.3917,2.3852,2.3851,2.385,2.3851,0,0,0,0,0,0,2.4052,2.4046,2.4039,2.4022,2.4015,2.3986,2.3991,2.3988,2.3978,2.3978,2.3956,2.3953,2.3944,2.3919,2.3913,2.3903,2.3915,2.3852,2.3851,2.385,2.3852,2.385,2.3849,0,0,0,0,0,2.4054,2.4038,2.4038,2.4033,2.4006,2.3985,2.3981,2.3973,2.3977,2.3969,2.3957,2.3954,2.3908,2.3916,2.391,2.3899,2.3853,2.3852,2.3851,2.3852,2.385,2.3849,0,0,0,0,0,0,2.4052,2.4036,2.4036,2.4014,2.4002,2.3984,2.3973,2.3971,2.3955,2.3956,2.3944,2.3939,2.3916,2.3905,2.3915,2.3876,2.3881,2.3878,2.3884,2.3882,2.3881,2.3883,2.3913,0,0,0,0,0,2.4049,2.4036,2.4022,2.4004,2.3998,2.3987,2.3978,2.3973,2.3958,2.3952,2.3939,2.3923,2.3905,2.3893,2.3876,2.3851,2.3845,2.384,2.3839,2.3838,2.3835,2.3822,2.3819,2.3846,2.3846,2.3846,0,0,2.4043,2.4033,2.4024,2.4004,2.3993,2.3978,2.3982,2.3966,2.3954,2.3949,2.3927,2.3917,2.3898,2.3874,2.3863,2.3864,2.3827,2.3836,2.3836,2.3834,2.382,2.3818,2.3816,2.3845,2.3845,2.3845,0,0,2.4023,2.4015,2.3999,2.399,2.3975,2.3968,2.3965,2.3949,2.3942,2.3921,2.3917,2.3902,2.3871,2.3859,2.3848,2.3827,2.3823,2.3821,2.3814,2.3801,2.3798,2.3796,2.3788,2.3786,2.3819,2.3819,2.3819,0,2.4016,2.3995,2.3991,2.3976,2.3966,2.3965,2.3948,2.3938,2.3917,2.391,2.3913,2.3877,2.3864,2.3837,2.3832,2.3824,2.3819,2.3823,2.38,2.3798,2.3796,2.3788,2.3785,2.3819,2.3819,2.3819,2.3819,0,2.3987,2.3973,2.3962,2.3946,2.3936,2.3919,2.3911,2.3901,2.3898,2.389,2.3868,2.3854,2.3834,2.3827,2.3822,2.38,2.3802,2.3802,2.3806,2.3793,2.3786,2.3783,2.3819,2.3819,2.3819,2.3819,0,0,2.3963,2.3946,2.3942,2.3935,2.392,2.3908,2.3892,2.3876,2.3867,2.3853,2.3839,2.3815,2.3816,2.3804,2.3798,2.3787,2.3771,2.3789,2.3788,2.3786,2.3745,2.3744,2.3741,2.377,2.3769,2.3769,2.3747,0,2.3941,2.3915,2.3911,2.3887,2.3874,2.3873,2.3859,2.3847,2.384,2.3827,2.3818,2.3801,2.3804,2.3797,2.3786,2.3776,2.3763,2.3777,2.3754,2.3753,2.3758,2.3737,2.3735,2.3716,2.3744,2.3743,2.3743,0,2.3911,2.39,2.3876,2.3864,2.3858,2.3846,2.3831,2.3819,2.3806,2.3801,2.379,2.3786,2.3768,2.3775,2.375,2.376,2.375,2.3744,2.3743,2.3739,2.3746,2.3732,2.3709,2.3706,2.3738,2.3739,2.3739,0,2.3895,2.3874,2.3857,2.3851,2.3837,2.3828,2.3822,2.381,2.38,2.3787,2.3781,2.3764,2.3755,2.3742,2.3734,2.3739,2.3709,2.3715,2.3704,2.3704,2.3695,2.3696,2.367,2.3692,2.3692,2.3692,2.3692,0,2.387,2.3855,2.385,2.3839,2.3822,2.3818,2.3801,2.3794,2.3784,2.3771,2.3768,2.3756,2.3746,2.3732,2.3725,2.3705,2.3701,2.3696,2.3694,2.3696,2.3696,2.3688,2.3689,2.3691,2.3691,2.3691,2.3691,0,2.3848,2.3844,2.3825,2.3815,2.3812,2.38,2.379,2.3779,2.3774,2.3758,2.3753,2.3743,2.3727,2.3718,2.3696,2.3692,2.367,2.3669,2.3675,2.3674,2.3663,2.3664,2.3629,2.3625,2.3651,2.365,2.365,0,2.3832,2.382,2.381,2.3803,2.3797,2.3784,2.3776,2.3772,2.3763,2.3749,2.3739,2.3723,2.371,2.3684,2.3673,2.3657,2.3655,2.3645,2.3652,2.3655,2.3654,2.3655,2.3653,2.3642,2.3642,2.3642,2.3642,0,2.3803,2.3802,2.3791,2.378,2.3771,2.3761,2.3751,2.3745,2.3739,2.3729,2.3714,2.3704,2.3684,2.3668,2.3652,2.3643,2.3641,2.364,2.3636,2.3637,2.3641,2.3638,2.367,2.364,2.364,2.364,2.364,2.3641,2.3782,2.3773,2.3765,2.3753,2.3746,2.3738,2.3727,2.3722,2.371,2.3695,2.3693,2.3677,2.3665,2.3644,2.3635,2.3621,2.3623,2.3618,2.3616,2.3615,2.3614,2.3645,2.3618,2.3618,2.3618,2.3618,2.3618,0,2.3753,2.3748,2.3738,2.3726,2.3717,2.372,2.371,2.3701,2.3687,2.3678,2.3667,2.3649,2.3634,2.3625,2.3609,2.36,2.3599,2.3596,2.3596,2.3594,2.3613,2.3618,2.3597,2.3597,2.3597,2.3597,2.3597,2.3597,2.3736,2.372,2.3719,2.37,2.3695,2.3681,2.3675,2.3667,2.366,2.3642,2.3631,2.3626,2.3616,2.36,2.3587,2.3584,2.3578,2.3575,2.3572,2.359,2.3592,2.3594,2.3598,2.3574,2.3574,2.3553,2.3553,2.3553]}]]